カタログに戻る

SOLRAD 1

GREB

運用中科学LEO
NORAD 46·PAYLOAD·🇺🇸 United States

打ち上げ Jun 22, 1960 から Cape Canaveral Space Force Station

Loading…

次のパス (今後24時間)

TLE

最新Source: Space-Track

元期: Sep 14, 2026, 14:52 UTC

1 00046U 60007B   26257.62010077  .00000739  00000-0  15234-3 0  9995
2 00046  66.6903 344.3847 0200257 227.6067 130.7949 14.54979999470012

AllMySatでSOLRAD 1をリアルタイム追跡

Download on the App Store